iso_date,Year,Hour,Min,DOY,POS_DOY,Lat,Lon,BP,Ts,Ta,has_bp,has_ts,has_ta,BuoyID,Buoy_Type,Buoy_Owner,Logistics,Hemisphere
2021-11-23T16:00:02Z,2021,16,0,327.6667,327.6667,64.042,-60.289,-999.0,-0.51,-999.0,no,yes,no,300234068345830,SVPGHI,AOML,UNKNOWN,North
2021-11-23T16:59:57Z,2021,17,0,327.7083,327.7083,64.051,-60.268,-999.0,-0.5,-999.0,no,yes,no,300234068345830,SVPGHI,AOML,UNKNOWN,North
2021-11-23T18:00:00Z,2021,18,0,327.75,327.75,64.058,-60.251,-999.0,-0.5,-999.0,no,yes,no,300234068345830,SVPGHI,AOML,UNKNOWN,North
2021-11-23T19:00:02Z,2021,19,0,327.7917,327.7917,64.065,-60.232,-999.0,-0.5,-999.0,no,yes,no,300234068345830,SVPGHI,AOML,UNKNOWN,North
2021-11-23T19:59:57Z,2021,20,0,327.8333,327.8333,64.065,-60.206,-999.0,-0.51,-999.0,no,yes,no,300234068345830,SVPGHI,AOML,UNKNOWN,North
2021-11-23T21:00:00Z,2021,21,0,327.875,327.875,64.062,-60.185,-999.0,-0.5,-999.0,no,yes,no,300234068345830,SVPGHI,AOML,UNKNOWN,North
2021-11-23T22:00:02Z,2021,22,0,327.9167,327.9167,64.058,-60.172,-999.0,-0.51,-999.0,no,yes,no,300234068345830,SVPGHI,AOML,UNKNOWN,North
2021-11-24T00:04:01Z,2021,0,4,328.0028,328.0028,64.043,-60.155,-999.0,-0.51,-999.0,no,yes,no,300234068345830,SVPGHI,AOML,UNKNOWN,North
2021-11-24T01:00:02Z,2021,1,0,328.0417,328.0417,64.037,-60.144,-999.0,-0.51,-999.0,no,yes,no,300234068345830,SVPGHI,AOML,UNKNOWN,North
2021-11-24T03:02:00Z,2021,3,2,328.1264,328.1264,64.024,-60.118,-999.0,-0.52,-999.0,no,yes,no,300234068345830,SVPGHI,AOML,UNKNOWN,North
2021-11-24T04:00:02Z,2021,4,0,328.1667,328.1667,64.018,-60.1,-999.0,-0.51,-999.0,no,yes,no,300234068345830,SVPGHI,AOML,UNKNOWN,North
2021-11-24T04:59:57Z,2021,5,0,328.2083,328.2083,64.012,-60.084,-999.0,-0.51,-999.0,no,yes,no,300234068345830,SVPGHI,AOML,UNKNOWN,North
2021-11-24T06:00:00Z,2021,6,0,328.25,328.25,64.006,-60.071,-999.0,-0.51,-999.0,no,yes,no,300234068345830,SVPGHI,AOML,UNKNOWN,North
2021-11-24T07:02:03Z,2021,7,2,328.2931,328.2931,64.001,-60.06,-999.0,-0.51,-999.0,no,yes,no,300234068345830,SVPGHI,AOML,UNKNOWN,North
2021-11-24T08:01:58Z,2021,8,2,328.3347,328.3347,63.99,-60.066,-999.0,-0.51,-999.0,no,yes,no,300234068345830,SVPGHI,AOML,UNKNOWN,North
2021-11-24T09:03:01Z,2021,9,3,328.3771,328.3771,63.981,-60.066,-999.0,-0.51,-999.0,no,yes,no,300234068345830,SVPGHI,AOML,UNKNOWN,North
2021-11-24T10:00:02Z,2021,10,0,328.4167,328.4167,63.976,-60.079,-999.0,-0.51,-999.0,no,yes,no,300234068345830,SVPGHI,AOML,UNKNOWN,North
2021-11-24T12:02:00Z,2021,12,2,328.5014,328.5014,63.968,-60.096,-999.0,-0.52,-999.0,no,yes,no,300234068345830,SVPGHI,AOML,UNKNOWN,North
2021-11-24T13:02:03Z,2021,13,2,328.5431,328.5431,63.965,-60.093,-999.0,-0.52,-999.0,no,yes,no,300234068345830,SVPGHI,AOML,UNKNOWN,North
2021-11-24T13:59:57Z,2021,14,0,328.5833,328.5833,63.964,-60.086,-999.0,-0.54,-999.0,no,yes,no,300234068345830,SVPGHI,AOML,UNKNOWN,North
2021-11-24T15:00:00Z,2021,15,0,328.625,328.625,63.961,-60.077,-999.0,-0.54,-999.0,no,yes,no,300234068345830,SVPGHI,AOML,UNKNOWN,North
2021-11-24T16:00:02Z,2021,16,0,328.6667,328.6667,63.957,-60.067,-999.0,-0.55,-999.0,no,yes,no,300234068345830,SVPGHI,AOML,UNKNOWN,North
2021-11-24T17:00:57Z,2021,17,1,328.709,328.709,63.952,-60.052,-999.0,-0.55,-999.0,no,yes,no,300234068345830,SVPGHI,AOML,UNKNOWN,North
2021-11-24T18:00:00Z,2021,18,0,328.75,328.75,63.946,-60.044,-999.0,-0.58,-999.0,no,yes,no,300234068345830,SVPGHI,AOML,UNKNOWN,North
2021-11-24T19:00:02Z,2021,19,0,328.7917,328.7917,63.938,-60.044,-999.0,-0.59,-999.0,no,yes,no,300234068345830,SVPGHI,AOML,UNKNOWN,North
2021-11-24T19:59:57Z,2021,20,0,328.8333,328.8333,63.933,-60.047,-999.0,-0.6,-999.0,no,yes,no,300234068345830,SVPGHI,AOML,UNKNOWN,North
2021-11-24T21:00:00Z,2021,21,0,328.875,328.875,63.929,-60.059,-999.0,-0.62,-999.0,no,yes,no,300234068345830,SVPGHI,AOML,UNKNOWN,North
2021-11-24T22:03:56Z,2021,22,4,328.9194,328.9194,63.926,-60.075,-999.0,-0.62,-999.0,no,yes,no,300234068345830,SVPGHI,AOML,UNKNOWN,North
2021-11-24T22:59:57Z,2021,23,0,328.9583,328.9583,63.924,-60.091,-999.0,-0.64,-999.0,no,yes,no,300234068345830,SVPGHI,AOML,UNKNOWN,North
2021-11-25T00:01:00Z,2021,0,1,329.0007,329.0007,63.921,-60.097,-999.0,-0.64,-999.0,no,yes,no,300234068345830,SVPGHI,AOML,UNKNOWN,North
2021-11-25T01:00:02Z,2021,1,0,329.0417,329.0417,63.915,-60.101,-999.0,-0.64,-999.0,no,yes,no,300234068345830,SVPGHI,AOML,UNKNOWN,North
2021-11-25T03:02:00Z,2021,3,2,329.1264,329.1264,63.9,-60.106,-999.0,-0.65,-999.0,no,yes,no,300234068345830,SVPGHI,AOML,UNKNOWN,North
2021-11-25T04:03:56Z,2021,4,4,329.1694,329.1694,63.888,-60.11,-999.0,-0.67,-999.0,no,yes,no,300234068345830,SVPGHI,AOML,UNKNOWN,North
2021-11-25T04:59:57Z,2021,5,0,329.2083,329.2083,63.887,-60.111,-999.0,-0.66,-999.0,no,yes,no,300234068345830,SVPGHI,AOML,UNKNOWN,North
2021-11-25T06:00:00Z,2021,6,0,329.25,329.25,63.878,-60.112,-999.0,-0.67,-999.0,no,yes,no,300234068345830,SVPGHI,AOML,UNKNOWN,North
2021-11-25T07:00:02Z,2021,7,0,329.2917,329.2917,63.869,-60.119,-999.0,-0.67,-999.0,no,yes,no,300234068345830,SVPGHI,AOML,UNKNOWN,North
2021-11-25T07:59:57Z,2021,8,0,329.3333,329.3333,63.862,-60.131,-999.0,-0.68,-999.0,no,yes,no,300234068345830,SVPGHI,AOML,UNKNOWN,North
2021-11-25T09:01:00Z,2021,9,1,329.3757,329.3757,63.856,-60.149,-999.0,-0.68,-999.0,no,yes,no,300234068345830,SVPGHI,AOML,UNKNOWN,North
2021-11-25T10:02:03Z,2021,10,2,329.4181,329.4181,63.845,-60.17,-999.0,-0.68,-999.0,no,yes,no,300234068345830,SVPGHI,AOML,UNKNOWN,North
2021-11-25T11:03:59Z,2021,11,4,329.4611,329.4611,63.836,-60.194,-999.0,-0.68,-999.0,no,yes,no,300234068345830,SVPGHI,AOML,UNKNOWN,North
2021-11-25T12:04:01Z,2021,12,4,329.5028,329.5028,-90.0,-180.0,-999.0,-0.69,-999.0,no,yes,no,300234068345830,SVPGHI,AOML,UNKNOWN,North
2021-11-25T13:01:03Z,2021,13,1,329.5424,329.5424,63.83,-60.237,-999.0,-0.68,-999.0,no,yes,no,300234068345830,SVPGHI,AOML,UNKNOWN,North
2021-11-25T13:59:57Z,2021,14,0,329.5833,329.5833,63.828,-60.255,-999.0,-0.69,-999.0,no,yes,no,300234068345830,SVPGHI,AOML,UNKNOWN,North
2021-11-25T15:02:00Z,2021,15,2,329.6264,329.6264,63.827,-60.269,-999.0,-0.68,-999.0,no,yes,no,300234068345830,SVPGHI,AOML,UNKNOWN,North
2021-11-25T18:00:00Z,2021,18,0,329.75,329.75,63.831,-60.28,-999.0,-0.69,-999.0,no,yes,no,300234068345830,SVPGHI,AOML,UNKNOWN,North
2021-11-25T19:00:02Z,2021,19,0,329.7917,329.7917,63.829,-60.28,-999.0,-0.69,-999.0,no,yes,no,300234068345830,SVPGHI,AOML,UNKNOWN,North
2021-11-25T19:59:57Z,2021,20,0,329.8333,329.8333,63.825,-60.282,-999.0,-0.69,-999.0,no,yes,no,300234068345830,SVPGHI,AOML,UNKNOWN,North
2021-11-25T21:00:00Z,2021,21,0,329.875,329.875,63.82,-60.285,-999.0,-0.69,-999.0,no,yes,no,300234068345830,SVPGHI,AOML,UNKNOWN,North
2021-11-25T22:01:03Z,2021,22,1,329.9174,329.9174,63.815,-60.294,-999.0,-0.69,-999.0,no,yes,no,300234068345830,SVPGHI,AOML,UNKNOWN,North
2021-11-25T22:59:57Z,2021,23,0,329.9583,329.9583,63.809,-60.307,-999.0,-0.7,-999.0,no,yes,no,300234068345830,SVPGHI,AOML,UNKNOWN,North
2021-11-26T00:00:00Z,2021,0,0,330.0,330.0,63.802,-60.326,-999.0,-0.7,-999.0,no,yes,no,300234068345830,SVPGHI,AOML,UNKNOWN,North
2021-11-26T01:03:04Z,2021,1,3,330.0438,330.0438,63.796,-60.345,-999.0,-0.7,-999.0,no,yes,no,300234068345830,SVPGHI,AOML,UNKNOWN,North
2021-11-26T01:59:57Z,2021,2,0,330.0833,330.0833,63.79,-60.362,-999.0,-0.7,-999.0,no,yes,no,300234068345830,SVPGHI,AOML,UNKNOWN,North
2021-11-26T03:00:00Z,2021,3,0,330.125,330.125,63.785,-60.378,-999.0,-0.7,-999.0,no,yes,no,300234068345830,SVPGHI,AOML,UNKNOWN,North
2021-11-26T04:01:03Z,2021,4,1,330.1674,330.1674,63.781,-60.391,-999.0,-0.71,-999.0,no,yes,no,300234068345830,SVPGHI,AOML,UNKNOWN,North
2021-11-26T04:59:57Z,2021,5,0,330.2083,330.2083,63.778,-60.402,-999.0,-0.72,-999.0,no,yes,no,300234068345830,SVPGHI,AOML,UNKNOWN,North
2021-11-26T06:00:00Z,2021,6,0,330.25,330.25,63.775,-60.411,-999.0,-0.71,-999.0,no,yes,no,300234068345830,SVPGHI,AOML,UNKNOWN,North
2021-11-26T07:00:02Z,2021,7,0,330.2917,330.2917,63.773,-60.421,-999.0,-0.71,-999.0,no,yes,no,300234068345830,SVPGHI,AOML,UNKNOWN,North
2021-11-26T07:59:57Z,2021,8,0,330.3333,330.3333,63.767,-60.429,-999.0,-0.71,-999.0,no,yes,no,300234068345830,SVPGHI,AOML,UNKNOWN,North
2021-11-26T09:00:00Z,2021,9,0,330.375,330.375,63.766,-60.446,-999.0,-0.71,-999.0,no,yes,no,300234068345830,SVPGHI,AOML,UNKNOWN,North
2021-11-26T10:00:02Z,2021,10,0,330.4167,330.4167,63.762,-60.464,-999.0,-0.73,-999.0,no,yes,no,300234068345830,SVPGHI,AOML,UNKNOWN,North
2021-11-26T12:00:00Z,2021,12,0,330.5,330.5,63.756,-60.509,-999.0,-0.8,-999.0,no,yes,no,300234068345830,SVPGHI,AOML,UNKNOWN,North
2021-11-26T13:00:02Z,2021,13,0,330.5417,330.5417,63.752,-60.533,-999.0,-0.79,-999.0,no,yes,no,300234068345830,SVPGHI,AOML,UNKNOWN,North
2021-11-26T13:59:57Z,2021,14,0,330.5833,330.5833,63.751,-60.558,-999.0,-0.78,-999.0,no,yes,no,300234068345830,SVPGHI,AOML,UNKNOWN,North
2021-11-26T15:00:00Z,2021,15,0,330.625,330.625,63.752,-60.582,-999.0,-0.77,-999.0,no,yes,no,300234068345830,SVPGHI,AOML,UNKNOWN,North
2021-11-26T16:00:02Z,2021,16,0,330.6667,330.6667,63.756,-60.599,-999.0,-0.76,-999.0,no,yes,no,300234068345830,SVPGHI,AOML,UNKNOWN,North
2021-11-26T16:59:57Z,2021,17,0,330.7083,330.7083,63.762,-60.609,-999.0,-0.74,-999.0,no,yes,no,300234068345830,SVPGHI,AOML,UNKNOWN,North
2021-11-26T18:00:00Z,2021,18,0,330.75,330.75,63.768,-60.613,-999.0,-0.74,-999.0,no,yes,no,300234068345830,SVPGHI,AOML,UNKNOWN,North
2021-11-26T19:00:02Z,2021,19,0,330.7917,330.7917,63.772,-60.612,-999.0,-0.73,-999.0,no,yes,no,300234068345830,SVPGHI,AOML,UNKNOWN,North
2021-11-26T19:59:57Z,2021,20,0,330.8333,330.8333,63.776,-60.608,-999.0,-0.73,-999.0,no,yes,no,300234068345830,SVPGHI,AOML,UNKNOWN,North
2021-11-26T21:00:00Z,2021,21,0,330.875,330.875,63.779,-60.596,-999.0,-0.72,-999.0,no,yes,no,300234068345830,SVPGHI,AOML,UNKNOWN,North
2021-11-26T22:00:02Z,2021,22,0,330.9167,330.9167,63.78,-60.593,-999.0,-0.71,-999.0,no,yes,no,300234068345830,SVPGHI,AOML,UNKNOWN,North
2021-11-27T00:00:00Z,2021,0,0,331.0,331.0,63.771,-60.6,-999.0,-0.7,-999.0,no,yes,no,300234068345830,SVPGHI,AOML,UNKNOWN,North
2021-11-27T01:00:02Z,2021,1,0,331.0417,331.0417,63.766,-60.605,-999.0,-0.7,-999.0,no,yes,no,300234068345830,SVPGHI,AOML,UNKNOWN,North
2021-11-27T01:59:57Z,2021,2,0,331.0833,331.0833,63.759,-60.621,-999.0,-0.7,-999.0,no,yes,no,300234068345830,SVPGHI,AOML,UNKNOWN,North
2021-11-27T03:00:00Z,2021,3,0,331.125,331.125,63.754,-60.637,-999.0,-0.69,-999.0,no,yes,no,300234068345830,SVPGHI,AOML,UNKNOWN,North
2021-11-27T04:00:02Z,2021,4,0,331.1667,331.1667,63.751,-60.652,-999.0,-0.69,-999.0,no,yes,no,300234068345830,SVPGHI,AOML,UNKNOWN,North
2021-11-27T04:59:57Z,2021,5,0,331.2083,331.2083,63.748,-60.665,-999.0,-0.69,-999.0,no,yes,no,300234068345830,SVPGHI,AOML,UNKNOWN,North
2021-11-27T06:00:00Z,2021,6,0,331.25,331.25,63.748,-60.679,-999.0,-0.7,-999.0,no,yes,no,300234068345830,SVPGHI,AOML,UNKNOWN,North
2021-11-27T08:00:57Z,2021,8,1,331.334,331.334,63.744,-60.698,-999.0,-0.7,-999.0,no,yes,no,300234068345830,SVPGHI,AOML,UNKNOWN,North
2021-11-27T09:01:00Z,2021,9,1,331.3757,331.3757,63.746,-60.711,-999.0,-0.71,-999.0,no,yes,no,300234068345830,SVPGHI,AOML,UNKNOWN,North
2021-11-27T10:00:02Z,2021,10,0,331.4167,331.4167,63.744,-60.728,-999.0,-0.71,-999.0,no,yes,no,300234068345830,SVPGHI,AOML,UNKNOWN,North
2021-11-27T12:02:00Z,2021,12,2,331.5014,331.5014,63.738,-60.776,-999.0,-0.72,-999.0,no,yes,no,300234068345830,SVPGHI,AOML,UNKNOWN,North
2021-11-27T13:00:02Z,2021,13,0,331.5417,331.5417,63.738,-60.799,-999.0,-0.72,-999.0,no,yes,no,300234068345830,SVPGHI,AOML,UNKNOWN,North
2021-11-27T13:59:57Z,2021,14,0,331.5833,331.5833,63.738,-60.824,-999.0,-0.73,-999.0,no,yes,no,300234068345830,SVPGHI,AOML,UNKNOWN,North
2021-11-27T16:00:02Z,2021,16,0,331.6667,331.6667,63.742,-60.875,-999.0,-0.72,-999.0,no,yes,no,300234068345830,SVPGHI,AOML,UNKNOWN,North
2021-11-27T16:59:57Z,2021,17,0,331.7083,331.7083,63.745,-60.891,-999.0,-0.71,-999.0,no,yes,no,300234068345830,SVPGHI,AOML,UNKNOWN,North
2021-11-27T18:03:01Z,2021,18,3,331.7521,331.7521,63.748,-60.907,-999.0,-0.68,-999.0,no,yes,no,300234068345830,SVPGHI,AOML,UNKNOWN,North
2021-11-27T19:02:03Z,2021,19,2,331.7931,331.7931,63.752,-60.919,-999.0,-0.68,-999.0,no,yes,no,300234068345830,SVPGHI,AOML,UNKNOWN,North
2021-11-27T19:59:57Z,2021,20,0,331.8333,331.8333,63.756,-60.93,-999.0,-0.65,-999.0,no,yes,no,300234068345830,SVPGHI,AOML,UNKNOWN,North
2021-11-27T21:00:00Z,2021,21,0,331.875,331.875,63.761,-60.94,-999.0,-0.65,-999.0,no,yes,no,300234068345830,SVPGHI,AOML,UNKNOWN,North
2021-11-27T22:00:02Z,2021,22,0,331.9167,331.9167,63.763,-60.944,-999.0,-0.64,-999.0,no,yes,no,300234068345830,SVPGHI,AOML,UNKNOWN,North
2021-11-27T23:02:58Z,2021,23,3,331.9604,331.9604,63.761,-60.96,-999.0,-0.64,-999.0,no,yes,no,300234068345830,SVPGHI,AOML,UNKNOWN,North
2021-11-28T01:00:02Z,2021,1,0,332.0417,332.0417,63.755,-60.993,-999.0,-0.65,-999.0,no,yes,no,300234068345830,SVPGHI,AOML,UNKNOWN,North
2021-11-28T01:59:57Z,2021,2,0,332.0833,332.0833,63.748,-61.017,-999.0,-0.65,-999.0,no,yes,no,300234068345830,SVPGHI,AOML,UNKNOWN,North
2021-11-28T03:04:01Z,2021,3,4,332.1278,332.1278,63.742,-61.04,-999.0,-0.66,-999.0,no,yes,no,300234068345830,SVPGHI,AOML,UNKNOWN,North
2021-11-28T04:00:02Z,2021,4,0,332.1667,332.1667,63.736,-61.056,-999.0,-0.65,-999.0,no,yes,no,300234068345830,SVPGHI,AOML,UNKNOWN,North
2021-11-28T04:59:57Z,2021,5,0,332.2083,332.2083,63.726,-61.075,-999.0,-0.65,-999.0,no,yes,no,300234068345830,SVPGHI,AOML,UNKNOWN,North
2021-11-28T06:00:00Z,2021,6,0,332.25,332.25,63.717,-61.1,-999.0,-0.66,-999.0,no,yes,no,300234068345830,SVPGHI,AOML,UNKNOWN,North
2021-11-28T07:00:02Z,2021,7,0,332.2917,332.2917,63.705,-61.125,-999.0,-0.66,-999.0,no,yes,no,300234068345830,SVPGHI,AOML,UNKNOWN,North
2021-11-28T08:00:57Z,2021,8,1,332.334,332.334,63.696,-61.153,-999.0,-0.67,-999.0,no,yes,no,300234068345830,SVPGHI,AOML,UNKNOWN,North
2021-11-28T09:00:00Z,2021,9,0,332.375,332.375,63.689,-61.18,-999.0,-0.67,-999.0,no,yes,no,300234068345830,SVPGHI,AOML,UNKNOWN,North
2021-11-28T10:00:02Z,2021,10,0,332.4167,332.4167,63.684,-61.21,-999.0,-0.68,-999.0,no,yes,no,300234068345830,SVPGHI,AOML,UNKNOWN,North
2021-11-28T12:03:01Z,2021,12,3,332.5021,332.5021,63.677,-61.283,-999.0,-0.69,-999.0,no,yes,no,300234068345830,SVPGHI,AOML,UNKNOWN,North
2021-11-28T13:00:02Z,2021,13,0,332.5417,332.5417,63.678,-61.312,-999.0,-0.69,-999.0,no,yes,no,300234068345830,SVPGHI,AOML,UNKNOWN,North
2021-11-28T13:59:57Z,2021,14,0,332.5833,332.5833,63.68,-61.339,-999.0,-0.69,-999.0,no,yes,no,300234068345830,SVPGHI,AOML,UNKNOWN,North
2021-11-28T15:00:00Z,2021,15,0,332.625,332.625,63.678,-61.362,-999.0,-0.69,-999.0,no,yes,no,300234068345830,SVPGHI,AOML,UNKNOWN,North
2021-11-28T16:00:02Z,2021,16,0,332.6667,332.6667,63.674,-61.385,-999.0,-0.7,-999.0,no,yes,no,300234068345830,SVPGHI,AOML,UNKNOWN,North
2021-11-28T16:59:57Z,2021,17,0,332.7083,332.7083,63.671,-61.404,-999.0,-0.69,-999.0,no,yes,no,300234068345830,SVPGHI,AOML,UNKNOWN,North
2021-11-28T18:00:00Z,2021,18,0,332.75,332.75,63.667,-61.423,-999.0,-0.69,-999.0,no,yes,no,300234068345830,SVPGHI,AOML,UNKNOWN,North
2021-11-28T19:00:02Z,2021,19,0,332.7917,332.7917,63.664,-61.441,-999.0,-0.68,-999.0,no,yes,no,300234068345830,SVPGHI,AOML,UNKNOWN,North
2021-11-28T19:59:57Z,2021,20,0,332.8333,332.8333,63.658,-61.457,-999.0,-0.68,-999.0,no,yes,no,300234068345830,SVPGHI,AOML,UNKNOWN,North
2021-11-28T21:04:01Z,2021,21,4,332.8778,332.8778,63.628,-61.473,-999.0,-0.67,-999.0,no,yes,no,300234068345830,SVPGHI,AOML,UNKNOWN,North
2021-11-28T22:02:03Z,2021,22,2,332.9181,332.9181,63.648,-61.487,-999.0,-0.65,-999.0,no,yes,no,300234068345830,SVPGHI,AOML,UNKNOWN,North
2021-11-28T23:02:58Z,2021,23,3,332.9604,332.9604,63.642,-61.52,-999.0,-0.64,-999.0,no,yes,no,300234068345830,SVPGHI,AOML,UNKNOWN,North
2021-11-29T00:00:00Z,2021,0,0,333.0,333.0,63.642,-61.549,-999.0,-0.63,-999.0,no,yes,no,300234068345830,SVPGHI,AOML,UNKNOWN,North
2021-11-29T01:00:02Z,2021,1,0,333.0417,333.0417,63.642,-61.581,-999.0,-0.63,-999.0,no,yes,no,300234068345830,SVPGHI,AOML,UNKNOWN,North
2021-11-29T01:59:57Z,2021,2,0,333.0833,333.0833,63.645,-61.607,-999.0,-0.63,-999.0,no,yes,no,300234068345830,SVPGHI,AOML,UNKNOWN,North
2021-11-29T03:00:00Z,2021,3,0,333.125,333.125,63.646,-61.624,-999.0,-0.62,-999.0,no,yes,no,300234068345830,SVPGHI,AOML,UNKNOWN,North
2021-11-29T04:03:56Z,2021,4,4,333.1694,333.1694,63.649,-61.624,-999.0,-0.63,-999.0,no,yes,no,300234068345830,SVPGHI,AOML,UNKNOWN,North
2021-11-29T04:59:57Z,2021,5,0,333.2083,333.2083,63.648,-61.623,-999.0,-0.62,-999.0,no,yes,no,300234068345830,SVPGHI,AOML,UNKNOWN,North
2021-11-29T06:00:00Z,2021,6,0,333.25,333.25,63.644,-61.615,-999.0,-0.63,-999.0,no,yes,no,300234068345830,SVPGHI,AOML,UNKNOWN,North
2021-11-29T08:01:58Z,2021,8,2,333.3347,333.3347,63.62,-61.6,-999.0,-0.63,-999.0,no,yes,no,300234068345830,SVPGHI,AOML,UNKNOWN,North
2021-11-29T09:00:00Z,2021,9,0,333.375,333.375,63.608,-61.602,-999.0,-0.63,-999.0,no,yes,no,300234068345830,SVPGHI,AOML,UNKNOWN,North
2021-11-29T10:00:02Z,2021,10,0,333.4167,333.4167,63.594,-61.617,-999.0,-0.64,-999.0,no,yes,no,300234068345830,SVPGHI,AOML,UNKNOWN,North
2021-11-29T13:00:02Z,2021,13,0,333.5417,333.5417,63.578,-61.717,-999.0,-0.64,-999.0,no,yes,no,300234068345830,SVPGHI,AOML,UNKNOWN,North
2021-11-29T14:03:59Z,2021,14,4,333.5861,333.5861,63.584,-61.752,-999.0,-0.64,-999.0,no,yes,no,300234068345830,SVPGHI,AOML,UNKNOWN,North
2021-11-29T15:00:00Z,2021,15,0,333.625,333.625,63.591,-61.781,-999.0,-0.64,-999.0,no,yes,no,300234068345830,SVPGHI,AOML,UNKNOWN,North
2021-11-29T16:00:02Z,2021,16,0,333.6667,333.6667,63.604,-61.798,-999.0,-0.64,-999.0,no,yes,no,300234068345830,SVPGHI,AOML,UNKNOWN,North
2021-11-29T16:59:57Z,2021,17,0,333.7083,333.7083,63.614,-61.801,-999.0,-0.64,-999.0,no,yes,no,300234068345830,SVPGHI,AOML,UNKNOWN,North
2021-11-29T18:00:00Z,2021,18,0,333.75,333.75,63.621,-61.789,-999.0,-0.64,-999.0,no,yes,no,300234068345830,SVPGHI,AOML,UNKNOWN,North
2021-11-29T19:00:02Z,2021,19,0,333.7917,333.7917,63.623,-61.767,-999.0,-0.65,-999.0,no,yes,no,300234068345830,SVPGHI,AOML,UNKNOWN,North
2021-11-29T19:59:57Z,2021,20,0,333.8333,333.8333,63.618,-61.748,-999.0,-0.65,-999.0,no,yes,no,300234068345830,SVPGHI,AOML,UNKNOWN,North
2021-11-29T21:04:01Z,2021,21,4,333.8778,333.8778,63.609,-61.733,-999.0,-0.65,-999.0,no,yes,no,300234068345830,SVPGHI,AOML,UNKNOWN,North
2021-11-29T22:00:02Z,2021,22,0,333.9167,333.9167,63.598,-61.723,-999.0,-0.65,-999.0,no,yes,no,300234068345830,SVPGHI,AOML,UNKNOWN,North
2021-11-29T22:59:57Z,2021,23,0,333.9583,333.9583,63.586,-61.725,-999.0,-0.65,-999.0,no,yes,no,300234068345830,SVPGHI,AOML,UNKNOWN,North
2021-11-30T00:00:00Z,2021,0,0,334.0,334.0,63.576,-61.741,-999.0,-0.65,-999.0,no,yes,no,300234068345830,SVPGHI,AOML,UNKNOWN,North
2021-11-30T01:00:02Z,2021,1,0,334.0417,334.0417,63.57,-61.766,-999.0,-0.65,-999.0,no,yes,no,300234068345830,SVPGHI,AOML,UNKNOWN,North
2021-11-30T01:59:57Z,2021,2,0,334.0833,334.0833,63.566,-61.793,-999.0,-0.65,-999.0,no,yes,no,300234068345830,SVPGHI,AOML,UNKNOWN,North
2021-11-30T03:00:00Z,2021,3,0,334.125,334.125,63.564,-61.817,-999.0,-0.65,-999.0,no,yes,no,300234068345830,SVPGHI,AOML,UNKNOWN,North
2021-11-30T04:00:02Z,2021,4,0,334.1667,334.1667,63.563,-61.84,-999.0,-0.65,-999.0,no,yes,no,300234068345830,SVPGHI,AOML,UNKNOWN,North
2021-11-30T04:59:57Z,2021,5,0,334.2083,334.2083,63.564,-61.852,-999.0,-0.66,-999.0,no,yes,no,300234068345830,SVPGHI,AOML,UNKNOWN,North
2021-11-30T06:00:00Z,2021,6,0,334.25,334.25,63.562,-61.85,-999.0,-0.66,-999.0,no,yes,no,300234068345830,SVPGHI,AOML,UNKNOWN,North
2021-11-30T07:00:02Z,2021,7,0,334.2917,334.2917,63.56,-61.844,-999.0,-0.66,-999.0,no,yes,no,300234068345830,SVPGHI,AOML,UNKNOWN,North
2021-11-30T07:59:57Z,2021,8,0,334.3333,334.3333,63.553,-61.83,-999.0,-0.67,-999.0,no,yes,no,300234068345830,SVPGHI,AOML,UNKNOWN,North
2021-11-30T09:00:00Z,2021,9,0,334.375,334.375,63.544,-61.819,-999.0,-0.67,-999.0,no,yes,no,300234068345830,SVPGHI,AOML,UNKNOWN,North
2021-11-30T10:00:02Z,2021,10,0,334.4167,334.4167,63.532,-61.811,-999.0,-0.68,-999.0,no,yes,no,300234068345830,SVPGHI,AOML,UNKNOWN,North
2021-11-30T12:00:00Z,2021,12,0,334.5,334.5,63.511,-61.82,-999.0,-0.68,-999.0,no,yes,no,300234068345830,SVPGHI,AOML,UNKNOWN,North
2021-11-30T13:00:02Z,2021,13,0,334.5417,334.5417,63.505,-61.836,-999.0,-0.69,-999.0,no,yes,no,300234068345830,SVPGHI,AOML,UNKNOWN,North
2021-11-30T13:59:57Z,2021,14,0,334.5833,334.5833,63.503,-61.857,-999.0,-0.68,-999.0,no,yes,no,300234068345830,SVPGHI,AOML,UNKNOWN,North
2021-11-30T15:00:00Z,2021,15,0,334.625,334.625,63.506,-61.883,-999.0,-0.69,-999.0,no,yes,no,300234068345830,SVPGHI,AOML,UNKNOWN,North
2021-11-30T16:00:02Z,2021,16,0,334.6667,334.6667,63.511,-61.906,-999.0,-0.7,-999.0,no,yes,no,300234068345830,SVPGHI,AOML,UNKNOWN,North
2021-11-30T16:59:57Z,2021,17,0,334.7083,334.7083,63.519,-61.92,-999.0,-0.7,-999.0,no,yes,no,300234068345830,SVPGHI,AOML,UNKNOWN,North
2021-11-30T19:03:56Z,2021,19,4,334.7944,334.7944,63.535,-61.91,-999.0,-0.71,-999.0,no,yes,no,300234068345830,SVPGHI,AOML,UNKNOWN,North
2021-11-30T19:59:57Z,2021,20,0,334.8333,334.8333,63.536,-61.897,-999.0,-0.71,-999.0,no,yes,no,300234068345830,SVPGHI,AOML,UNKNOWN,North
2021-11-30T21:00:00Z,2021,21,0,334.875,334.875,63.536,-61.88,-999.0,-0.73,-999.0,no,yes,no,300234068345830,SVPGHI,AOML,UNKNOWN,North
2021-11-30T22:02:03Z,2021,22,2,334.9181,334.9181,63.533,-61.86,-999.0,-0.73,-999.0,no,yes,no,300234068345830,SVPGHI,AOML,UNKNOWN,North
2021-11-30T22:59:57Z,2021,23,0,334.9583,334.9583,63.528,-61.851,-999.0,-0.75,-999.0,no,yes,no,300234068345830,SVPGHI,AOML,UNKNOWN,North
2021-12-01T00:00:00Z,2021,0,0,335.0,335.0,63.522,-61.841,-999.0,-0.76,-999.0,no,yes,no,300234068345830,SVPGHI,AOML,UNKNOWN,North
2021-12-01T01:59:57Z,2021,2,0,335.0833,335.0833,63.505,-61.863,-999.0,-0.79,-999.0,no,yes,no,300234068345830,SVPGHI,AOML,UNKNOWN,North
2021-12-01T03:01:00Z,2021,3,1,335.1257,335.1257,63.5,-61.89,-999.0,-0.79,-999.0,no,yes,no,300234068345830,SVPGHI,AOML,UNKNOWN,North
2021-12-01T04:00:02Z,2021,4,0,335.1667,335.1667,63.498,-61.92,-999.0,-0.8,-999.0,no,yes,no,300234068345830,SVPGHI,AOML,UNKNOWN,North
2021-12-01T04:59:57Z,2021,5,0,335.2083,335.2083,63.499,-61.948,-999.0,-0.81,-999.0,no,yes,no,300234068345830,SVPGHI,AOML,UNKNOWN,North
2021-12-01T06:00:00Z,2021,6,0,335.25,335.25,63.499,-61.972,-999.0,-0.79,-999.0,no,yes,no,300234068345830,SVPGHI,AOML,UNKNOWN,North
2021-12-01T07:03:56Z,2021,7,4,335.2944,335.2944,63.501,-61.988,-999.0,-0.78,-999.0,no,yes,no,300234068345830,SVPGHI,AOML,UNKNOWN,North
2021-12-01T07:59:57Z,2021,8,0,335.3333,335.3333,63.501,-61.994,-999.0,-0.77,-999.0,no,yes,no,300234068345830,SVPGHI,AOML,UNKNOWN,North
2021-12-01T09:00:00Z,2021,9,0,335.375,335.375,63.499,-61.994,-999.0,-0.76,-999.0,no,yes,no,300234068345830,SVPGHI,AOML,UNKNOWN,North
2021-12-01T10:00:02Z,2021,10,0,335.4167,335.4167,63.497,-61.992,-999.0,-0.77,-999.0,no,yes,no,300234068345830,SVPGHI,AOML,UNKNOWN,North
2021-12-01T10:59:57Z,2021,11,0,335.4583,335.4583,63.491,-61.989,-999.0,-0.77,-999.0,no,yes,no,300234068345830,SVPGHI,AOML,UNKNOWN,North
2021-12-01T12:00:00Z,2021,12,0,335.5,335.5,63.485,-61.99,-999.0,-0.78,-999.0,no,yes,no,300234068345830,SVPGHI,AOML,UNKNOWN,North
2021-12-01T13:00:02Z,2021,13,0,335.5417,335.5417,63.478,-61.999,-999.0,-0.78,-999.0,no,yes,no,300234068345830,SVPGHI,AOML,UNKNOWN,North
2021-12-01T13:59:57Z,2021,14,0,335.5833,335.5833,63.473,-62.021,-999.0,-0.76,-999.0,no,yes,no,300234068345830,SVPGHI,AOML,UNKNOWN,North
2021-12-01T15:00:00Z,2021,15,0,335.625,335.625,63.471,-62.048,-999.0,-0.77,-999.0,no,yes,no,300234068345830,SVPGHI,AOML,UNKNOWN,North
2021-12-01T16:00:02Z,2021,16,0,335.6667,335.6667,63.467,-62.075,-999.0,-0.79,-999.0,no,yes,no,300234068345830,SVPGHI,AOML,UNKNOWN,North
2021-12-01T16:59:57Z,2021,17,0,335.7083,335.7083,63.465,-62.103,-999.0,-0.81,-999.0,no,yes,no,300234068345830,SVPGHI,AOML,UNKNOWN,North
2021-12-01T18:02:00Z,2021,18,2,335.7514,335.7514,63.462,-62.124,-999.0,-0.82,-999.0,no,yes,no,300234068345830,SVPGHI,AOML,UNKNOWN,North
2021-12-01T19:00:02Z,2021,19,0,335.7917,335.7917,63.459,-62.132,-999.0,-0.84,-999.0,no,yes,no,300234068345830,SVPGHI,AOML,UNKNOWN,North